Location: USNO
(38.9242°N, 77.0663°W)
Time: 22:00:34
(UTC-04:00)

Vanguard 3 - All Passes

Search period start: 23 October 2017 00:00
Search period end: 02 November 2017 00:00
Orbit: 510 x 3263 km, 33.3° (Epoch: 23 October)

Date Brightness Start Highest point End Pass type
(mag) Time Alt. Az. Time Alt. Az. Time Alt. Az.
23 Oct - 02:07:22 10° SSW 02:22:25 31° SSE 02:33:32 10° E visible
23 Oct - 04:20:52 10° SW 04:36:57 53° SSE 04:46:35 10° E visible
23 Oct - 06:37:36 10° WSW 06:50:33 63° S 06:57:40 10° ESE visible
23 Oct - 08:54:19 10° W 09:02:33 39° SSW 09:07:32 10° SE daylight
24 Oct - 00:54:03 10° S 01:06:53 22° SE 01:17:36 10° E visible
24 Oct - 03:04:42 10° SW 03:21:37 45° SSE 03:32:50 10° E visible
24 Oct - 05:20:32 10° WSW 05:35:58 63° S 05:44:41 10° E visible
24 Oct - 07:37:46 10° W 07:48:59 56° SSW 07:55:14 10° ESE daylight
24 Oct - 09:54:38 10° W 09:59:58 21° SW 10:03:47 10° S daylight
24 Oct - 23:44:13 10° SSE 23:51:24 13° SE 23:58:12 10° ESE night (unlit)
25 Oct - 01:49:31 10° SSW 02:06:00 36° SSE 02:18:22 10° E visible
25 Oct - 04:03:36 10° WSW 04:20:51 58° SSE 04:31:20 10° E visible
25 Oct - 06:20:45 10° W 06:34:48 65° S 06:42:32 10° ESE visible
25 Oct - 08:37:57 10° W 08:46:55 38° SSW 08:52:20 10° SE daylight
26 Oct - 00:35:48 10° S 00:50:18 26° SE 01:02:40 10° E visible
26 Oct - 02:47:16 10° SW 03:05:17 50° SSE 03:17:31 10° E visible
26 Oct - 05:03:29 10° WSW 05:20:01 67° S 05:29:29 10° E visible
26 Oct - 07:21:05 10° W 07:33:17 55° SSW 07:40:06 10° ESE daylight
26 Oct - 09:38:39 10° W 09:44:15 19° SW 09:48:17 10° S daylight
26 Oct - 23:24:34 10° SSE 23:34:48 17° SE 23:44:29 10° ESE night (unlit)
27 Oct - 01:31:55 10° SSW 01:49:26 41° SSE 02:02:59 10° E visible
27 Oct - 03:46:25 10° WSW 04:04:38 63° SSE 04:16:02 10° E visible
27 Oct - 06:03:51 10° W 06:18:58 66° S 06:27:22 10° ESE visible
27 Oct - 08:21:28 10° W 08:31:11 36° SSW 08:37:04 10° SE daylight
28 Oct - 00:17:57 10° SSW 00:33:37 30° SE 00:47:21 10° E visible
28 Oct - 02:30:00 10° SW 02:48:49 55° SSE 03:02:04 10° E visible
28 Oct - 04:46:28 10° WSW 05:03:57 69° S 05:14:13 10° E visible
28 Oct - 07:04:19 10° W 07:17:28 54° SSW 07:24:54 10° SE visible
28 Oct - 09:22:35 10° W 09:28:26 18° SW 09:32:41 10° S daylight
28 Oct - 23:06:01 10° S 23:18:03 20° SE 23:29:45 10° E night (unlit)
29 Oct - 01:14:34 10° SW 01:32:45 45° SSE 01:47:26 10° E visible
29 Oct - 03:29:19 10° WSW 03:48:18 66° S 04:00:37 10° E visible
29 Oct - 05:46:55 10° W 06:03:00 66° S 06:12:08 10° ESE visible
29 Oct - 08:04:55 10° W 08:15:21 35° SW 08:21:43 10° SSE daylight
29 Oct - 22:02:00 10° SE 22:02:56 10° SE 22:03:51 10° SE night (unlit)
30 Oct - 00:00:28 10° SSW 00:16:48 35° SE 00:31:46 10° E visible
30 Oct - 02:12:53 10° SW 02:32:13 60° SSE 02:46:29 10° E visible
30 Oct - 04:29:27 10° W 04:47:46 71° S 04:58:52 10° E visible
30 Oct - 06:47:29 10° W 07:01:33 52° SSW 07:09:36 10° SE visible
30 Oct - 09:06:30 10° W 09:12:29 17° SW 09:16:57 10° S daylight
30 Oct - 22:48:07 10° S 23:01:13 24° SE 23:14:28 10° E visible
31 Oct - 00:57:27 10° SW 01:15:58 50° SSE 01:31:42 10° E visible
31 Oct - 03:12:20 10° WSW 03:31:52 69° S 03:45:07 10° E visible
31 Oct - 05:29:58 10° W 05:46:55 65° SSW 05:56:48 10° ESE visible
31 Oct - 07:48:16 10° W 07:59:22 33° SW 08:06:16 10° SSE daylight
31 Oct - 21:39:34 10° SSE 21:46:10 13° SE 21:53:03 10° ESE visible
31 Oct - 23:43:16 10° SSW 23:59:53 39° SE 00:15:58 10° E visible
01 Nov - 01:55:55 10° WSW 02:15:32 63° SSE 02:30:48 10° E visible
01 Nov - 04:12:30 10° W 04:31:28 71° S 04:43:26 10° ESE visible
01 Nov - 06:30:36 10° W 06:45:29 50° SSW 06:54:14 10° SE visible
01 Nov - 08:50:24 10° W 08:56:27 16° SW 09:01:03 10° SSW daylight
01 Nov - 22:30:40 10° S 22:44:18 27° SE 22:58:47 10° E visible
